Location: Centerville
(32.8776°N, 96.6203°W)
Time: 12:03:44
(UTC+00:00)

Cosmos 1953 - Pass Details

Date: 17 June 2021
Orbit: 538 x 557 km, 82.5° (Epoch: 30 July)

Event Time Altitude Azimuth Distance (km) Brightness Sun altitude
Rises 03:32:28 0° 3° (N) 2,744 6.5 -20.0°
Reaches altitude 10° 03:34:47 10° 13° (NNE) 1,845 5.4 -20.3°
Enters shadow 03:38:16 35° 71° (ENE) 903 3.2 -20.8°
